Location: Bishop�s Knoyle
(51.0728°N, 2.1714°W)
Time: 22:49:57
(UTC+00:00)

Cosmos 1892 Rocket - Pass Details

Date: 18 September 2020
Orbit: 606 x 634 km, 82.5° (Epoch: 20 October)

Event Time Altitude Azimuth Distance (km) Brightness Sun altitude
Rises 20:13:53 0° 356° (N) 2,880 7.4 -18.7°
Reaches altitude 10° 20:16:17 10° 6° (N) 1,969 6.4 -19.1°
Enters shadow 20:20:08 33° 67° (ENE) 1,023 4.3 -19.6°
